When you browse on this site, cookies collect data to enhance your experience and personalize the content and advertising you see.
Visit our Privacy Policy to learn more. By continuing to use the site, you agree to this use of cookies and data.
  • In Hungary
  • List of Countries
  • For 7 days
  • Water Temperature
  • Satellite Maps
  • Weather Map
  • News
  • Weather Widgets
  • user-avatar
    Login

    Hourly Weather Sudzioka

    Today, 19 January, Saturday

    Time Temperature Precipitation Wind Pressure Humidity
    00:00 +2°C° 0 mm 3 mps 765 mmHg 43%
    01:00 +2°C° 0 mm 3 mps 765 mmHg 44%
    02:00 +2°C° 0 mm 3 mps 764 mmHg 45%
    03:00 +2°C° 0 mm 3 mps 764 mmHg 50%
    04:00 +2°C° 0 mm 3 mps 764 mmHg 51%
    05:00 +2°C° 0 mm 3 mps 765 mmHg 52%
    06:00 +2°C° 0 mm 3 mps 765 mmHg 54%
    07:00 +4°C° 0 mm 3 mps 765 mmHg 49%
    08:00 +5°C° 0 mm 3 mps 765 mmHg 44%
    09:00 +9°C° 0 mm 3 mps 765 mmHg 35%
    10:00 +10°C° 0 mm 3 mps 765 mmHg 32%
    11:00 +11°C° 0 mm 4 mps 764 mmHg 30%
    12:00 +13°C° 0 mm 5 mps 764 mmHg 27%
    13:00 +13°C° 0 mm 5 mps 763 mmHg 28%
    14:00 +13°C° 0 mm 5 mps 763 mmHg 29%
    15:00 +13°C° 0 mm 5 mps 763 mmHg 30%
    16:00 +10°C° 0 mm 5 mps 763 mmHg 37%
    17:00 +8°C° 0 mm 4 mps 763 mmHg 44%
    18:00 +6°C° 0 mm 4 mps 763 mmHg 50%
    19:00 +5°C° 0 mm 4 mps 763 mmHg 53%
    20:00 +5°C° 0 mm 3 mps 763 mmHg 55%
    21:00 +4°C° 0 mm 3 mps 763 mmHg 57%
    22:00 +4°C° 0 mm 3 mps 762 mmHg 57%
    23:00 +4°C° 0 mm 3 mps 762 mmHg 56%

    Tomorrow, 20 January, Sunday

    Time Temperature Precipitation Wind Pressure Humidity
    00:00 +4°C° 0 mm 3 mps 762 mmHg 56%
    01:00 +4°C° 0 mm 3 mps 761 mmHg 57%
    02:00 +4°C° 0 mm 3 mps 761 mmHg 59%
    03:00 +4°C° 0 mm 3 mps 760 mmHg 60%
    04:00 +4°C° 0 mm 3 mps 759 mmHg 61%
    05:00 +5°C° 0 mm 3 mps 759 mmHg 62%
    06:00 +5°C° 0 mm 4 mps 758 mmHg 63%
    07:00 +7°C° 0 mm 4 mps 758 mmHg 61%
    08:00 +9°C° 0 mm 3 mps 757 mmHg 59%
    09:00 +11°C° 0 mm 3 mps 756 mmHg 57%
    10:00 +11°C° 0.2 mm 4 mps 755 mmHg 60%
    11:00 +10°C° 0.2 mm 5 mps 754 mmHg 64%
    12:00 +10°C° 0.2 mm 5 mps 753 mmHg 68%
    13:00 +11°C° 0 mm 6 mps 753 mmHg 65%
    14:00 +12°C° 0 mm 7 mps 752 mmHg 62%
    15:00 +12°C° 0 mm 8 mps 751 mmHg 58%
    16:00 +11°C° 0 mm 8 mps 752 mmHg 62%
    17:00 +9°C° 0 mm 8 mps 752 mmHg 66%
    18:00 +6°C° 0 mm 8 mps 753 mmHg 70%
    19:00 +6°C° 0 mm 7 mps 753 mmHg 70%
    20:00 +5°C° 0 mm 7 mps 753 mmHg 70%
    21:00 +4°C° 0 mm 6 mps 753 mmHg 70%
    22:00 +4°C° 0 mm 6 mps 754 mmHg 70%
    23:00 +3°C° 0 mm 6 mps 754 mmHg 69%

    Day after tomorrow, 21 January, Monday

    Time Temperature Precipitation Wind Pressure Humidity
    00:00 +3°C° 0 mm 5 mps 754 mmHg 68%
    01:00 +2°C° 0 mm 6 mps 755 mmHg 63%
    02:00 +2°C° 0 mm 6 mps 755 mmHg 58%
    03:00 +1°C° 0 mm 6 mps 756 mmHg 53%
    04:00 -1°C° 0 mm 6 mps 756 mmHg 52%
    05:00 -1°C° 0 mm 6 mps 756 mmHg 51%
    06:00 -1°C° 0 mm 5 mps 757 mmHg 50%
    07:00 +1°C° 0 mm 6 mps 757 mmHg 44%
    08:00 +2°C° 0 mm 6 mps 758 mmHg 37%
    09:00 +3°C° 0 mm 6 mps 758 mmHg 31%
    10:00 +4°C° 0 mm 6 mps 758 mmHg 30%
    11:00 +5°C° 0 mm 6 mps 758 mmHg 29%
    12:00 +6°C° 0 mm 7 mps 757 mmHg 27%
    13:00 +6°C° 0 mm 7 mps 757 mmHg 29%
    14:00 +6°C° 0 mm 7 mps 757 mmHg 31%
    15:00 +6°C° 0 mm 7 mps 756 mmHg 32%
    16:00 +5°C° 0 mm 6 mps 756 mmHg 40%
    17:00 +4°C° 0 mm 6 mps 757 mmHg 47%
    18:00 +2°C° 0 mm 6 mps 757 mmHg 55%
    19:00 +2°C° 0 mm 6 mps 757 mmHg 58%
    20:00 +2°C° 0 mm 6 mps 757 mmHg 62%
    21:00 +2°C° 0 mm 6 mps 757 mmHg 65%
    22:00 +2°C° 0 mm 6 mps 757 mmHg 66%
    23:00 +2°C° 0 mm 6 mps 757 mmHg 68%

    22 January, Tuesday

    Time Temperature Precipitation Wind Pressure Humidity
    00:00 +2°C° 0 mm 6 mps 756 mmHg 69%
    01:00 +2°C° 0 mm 6 mps 756 mmHg 69%
    02:00 +2°C° 0 mm 6 mps 756 mmHg 69%
    03:00 +3°C° 0 mm 7 mps 756 mmHg 69%
    04:00 +3°C° 0 mm 7 mps 756 mmHg 69%
    05:00 +3°C° 0 mm 7 mps 756 mmHg 69%
    06:00 +3°C° 0 mm 7 mps 755 mmHg 69%
    07:00 +4°C° 0 mm 8 mps 755 mmHg 65%
    08:00 +5°C° 0 mm 8 mps 756 mmHg 61%
    09:00 +6°C° 0 mm 8 mps 756 mmHg 57%
    10:00 +7°C° 0 mm 9 mps 755 mmHg 53%
    11:00 +8°C° 0 mm 9 mps 755 mmHg 48%
    12:00 +10°C° 0 mm 9 mps 755 mmHg 44%
    13:00 +10°C° 0 mm 8 mps 755 mmHg 44%
    14:00 +10°C° 0 mm 8 mps 755 mmHg 44%
    15:00 +9°C° 0 mm 8 mps 755 mmHg 45%
    16:00 +8°C° 0 mm 7 mps 755 mmHg 50%
    17:00 +5°C° 0 mm 6 mps 756 mmHg 56%
    18:00 +4°C° 0 mm 6 mps 756 mmHg 62%
    19:00 +3°C° 0 mm 5 mps 756 mmHg 62%
    20:00 +3°C° 0 mm 5 mps 757 mmHg 61%
    21:00 +3°C° 0 mm 4 mps 757 mmHg 61%
    22:00 +3°C° 0 mm 4 mps 757 mmHg 61%
    23:00 +3°C° 0 mm 4 mps 757 mmHg 61%

    23 January, Wednesday

    Time Temperature Precipitation Wind Pressure Humidity
    00:00 +3°C° 0 mm 4 mps 757 mmHg 61%
    01:00 +3°C° 0 mm 4 mps 757 mmHg 63%
    02:00 +2°C° 0 mm 5 mps 756 mmHg 64%
    03:00 +2°C° 0 mm 5 mps 756 mmHg 66%
    04:00 +2°C° 0 mm 5 mps 756 mmHg 67%
    05:00 +2°C° 0 mm 5 mps 756 mmHg 68%
    06:00 +2°C° 0 mm 5 mps 756 mmHg 69%
    07:00 +3°C° 0 mm 6 mps 756 mmHg 64%
    08:00 +5°C° 0 mm 6 mps 756 mmHg 59%
    09:00 +6°C° 0 mm 7 mps 756 mmHg 55%
    10:00 +8°C° 0 mm 7 mps 755 mmHg 52%
    11:00 +9°C° 0 mm 8 mps 755 mmHg 50%
    12:00 +10°C° 0 mm 9 mps 754 mmHg 47%
    13:00 +8°C° 0 mm 9 mps 754 mmHg 49%
    14:00 +8°C° 0 mm 10 mps 753 mmHg 50%
    15:00 +8°C° 0 mm 10 mps 753 mmHg 52%
    16:00 +7°C° 0 mm 10 mps 754 mmHg 55%
    17:00 +5°C° 0 mm 9 mps 754 mmHg 58%
    18:00 +3°C° 0 mm 9 mps 755 mmHg 61%
    19:00 +2°C° 0 mm 8 mps 756 mmHg 60%
    20:00 +2°C° 0 mm 7 mps 757 mmHg 58%
    21:00 +1°C° 0 mm 6 mps 758 mmHg 56%
    22:00 +1°C° 0 mm 5 mps 758 mmHg 56%
    23:00 0°C° 0 mm 5 mps 759 mmHg 56%

    24 January, Thursday

    Time Temperature Precipitation Wind Pressure Humidity
    00:00 -1°C° 0 mm 4 mps 759 mmHg 56%
    01:00 -1°C° 0 mm 4 mps 760 mmHg 55%
    02:00 -1°C° 0 mm 3 mps 760 mmHg 54%
    03:00 -1°C° 0 mm 3 mps 760 mmHg 52%
    04:00 -1°C° 0 mm 2 mps 761 mmHg 51%
    05:00 -1°C° 0 mm 2 mps 761 mmHg 50%
    06:00 -1°C° 0 mm 2 mps 761 mmHg 48%
    07:00 +2°C° 0 mm 2 mps 762 mmHg 46%
    08:00 +5°C° 0 mm 1 mps 762 mmHg 44%
    09:00 +7°C° 0 mm 1 mps 763 mmHg 42%
    10:00 +7°C° 0 mm 2 mps 763 mmHg 43%
    11:00 +8°C° 0 mm 2 mps 763 mmHg 44%
    12:00 +9°C° 0 mm 2 mps 762 mmHg 45%
    13:00 +9°C° 0 mm 2 mps 762 mmHg 44%
    14:00 +9°C° 0 mm 3 mps 762 mmHg 44%
    15:00 +9°C° 0 mm 3 mps 762 mmHg 44%
    16:00 +7°C° 0 mm 3 mps 762 mmHg 50%
    17:00 +5°C° 0 mm 2 mps 762 mmHg 56%
    18:00 +4°C° 0 mm 2 mps 763 mmHg 62%
    19:00 +3°C° 0 mm 2 mps 763 mmHg 65%
    20:00 +3°C° 0 mm 2 mps 763 mmHg 67%
    21:00 +2°C° 0 mm 2 mps 763 mmHg 70%
    22:00 +2°C° 0 mm 2 mps 763 mmHg 70%
    23:00 +2°C° 0 mm 2 mps 763 mmHg 69%
    Show more